Pagina principale
METAR-TAF:

METAR-TAF

Aeroporti :

Vineyard Haven, Massachusetts, Stati Uniti

latitudine: 41-23-32N, longitudine: 070-37-00W, altezza: 20 m

Osservazione

Il bollettino è stato emesso 30 minuti fa, alle 07:53 UTC
Vento 3 kt da ovest
Temperature 23°C
Umidità 94%
Pressione 1014 hPa
Visibilità: 12.9 km
Cielo sereno

METAR: KMVY 160753Z AUTO 27003KT 8SM CLR 23/22 A2993 RMK AO2 SLP135 T02280217

Ora: 04:23 (08:23 UTC)


TAF: mancante

Osservazioni e previsioni meteorologiche di più di 4000 aeroporti (messaggi METAR e TAF).

Le stazioni disponibili sono rappresentate dai dischi gialli e rossi sulla carta.

Puntare il mouse per vedere il nome della stazione.

Clicca sopra per visualizzare le osservazioni e previsioni meteorologiche.

Per cambiare la mappa : fare clic sui pulsanti verdi con una croce nera per ingrandire, il pulsante verde con un trattino per diminuire, o sulla freccia verde per le mappe adiacenti.


METAR-TAF: